STATION HISTORICAL DATA FROM WUNDERGROUND.COM FOR HIGH PARK VILLAGE,TORONTO,ON,CANADA
 
Daily Summary for January 28, 2020 Units:  Metric    English   Both
Next Day »
Daily Weekly Monthly Yearly Custom
  Current: High: Low: Average:
Temperature: 0.7 °C 1.3 °C -0.8 °C -0.1 °C
Dew Point: -4.2 °C -2.1 °C -4.2 °C -3.1 °C
Humidity: 70% 89% 70% 80%
Wind Speed: 9.3km/h 20.4km/h 1.9km/h 10.6km/h
Wind Gust: 4km/h 9km/h - -
WindNW - - WNW
Pressure: 1012.8 hPa 1013.4 hPa 1010 hPa -
Precipitation: 0 mm      
Historical Graphs
 
 
Tabular Data for January 28, 2020
Time Temperature Dew Point Pressure Wind Wind Speed Wind Gust Humidity Rainfall Rate (Hourly) Solar Conditions
00:00 0.1 °C -2.4 °C 1010 hPa NW 9.3 km/h 3.4 km/h 83% 0 mm 0.00 W/m2 OVC
00:05 0.1 °C -2.4 °C 1010 hPa WNW 9.3 km/h 4 km/h 83% 0 mm 0.00 W/m2 OVC
00:10 0.1 °C -2.4 °C 1010 hPa WNW 9.3 km/h 3.7 km/h 83% 0 mm 0.00 W/m2 OVC
00:15 0.1 °C -2.4 °C 1010 hPa West 7.4 km/h 3.5 km/h 83% 0 mm 0.00 W/m2 OVC
00:20 0.1 °C -2.4 °C 1010 hPa NW 7.4 km/h 3.7 km/h 83% 0 mm 0.00 W/m2 OVC
00:25 0.1 °C -2.4 °C 1010 hPa NW 9.3 km/h 4.5 km/h 83% 0 mm 0.00 W/m2 OVC
00:30 0.1 °C -2.4 °C 1010 hPa NW 9.3 km/h 4.8 km/h 83% 0 mm 0.00 W/m2 OVC
00:35 0.1 °C -2.4 °C 1010 hPa NNW 7.4 km/h 3.7 km/h 83% 0 mm 0.00 W/m2 OVC
00:40 0.1 °C -2.4 °C 1010 hPa NW 7.4 km/h 2.4 km/h 83% 0 mm 0.00 W/m2 OVC
00:45 0.2 °C -2.4 °C 1010 hPa WNW 5.6 km/h 1.4 km/h 83% 0 mm 0.00 W/m2 CLR
00:50 0.2 °C -2.4 °C 1010 hPa WSW 5.6 km/h 1 km/h 83% 0 mm 0.00 W/m2 CLR
00:55 0.2 °C -2.4 °C 1010 hPa WNW 7.4 km/h 1.6 km/h 83% 0 mm 0.00 W/m2 OVC
01:00 0.2 °C -2.6 °C 1010 hPa NW 7.4 km/h 2.9 km/h 82% 0 mm 0.00 W/m2 OVC
01:05 0.2 °C -2.6 °C 1010 hPa NW 7.4 km/h 2.9 km/h 82% 0 mm 0.00 W/m2 OVC
01:10 0.2 °C -2.5 °C 1010 hPa West 7.4 km/h 1.9 km/h 82% 0 mm 0.00 W/m2 OVC
01:15 0.2 °C -2.6 °C 1010 hPa WNW 7.4 km/h 1.6 km/h 82% 0 mm 0.00 W/m2 OVC
01:20 0.2 °C -2.6 °C 1010 hPa NW 7.4 km/h 2.3 km/h 82% 0 mm 0.00 W/m2 OVC
01:25 0.2 °C -2.6 °C 1010 hPa NW 5.6 km/h 2.1 km/h 82% 0 mm 0.00 W/m2 OVC
01:30 0.2 °C -2.4 °C 1010 hPa SW 5.6 km/h 1.4 km/h 83% 0 mm 0.00 W/m2 CLR
01:35 0.2 °C -2.3 °C 1010 hPa SW 3.7 km/h 0.8 km/h 83% 0 mm 0.00 W/m2 CLR
01:40 0.2 °C -2.3 °C 1010.4 hPa WNW 5.6 km/h 0.5 km/h 83% 0 mm 0.00 W/m2 OVC
01:45 0.2 °C -2.3 °C 1010 hPa WNW 5.6 km/h 1 km/h 83% 0 mm 0.00 W/m2 OVC
01:50 0.2 °C -2.4 °C 1010.4 hPa NW 5.6 km/h 1.4 km/h 83% 0 mm 0.00 W/m2 OVC
01:55 0.1 °C -2.4 °C 1010.4 hPa NW 5.6 km/h 1.6 km/h 83% 0 mm 0.00 W/m2 OVC
02:00 0.1 °C -2.4 °C 1010.4 hPa NW 3.7 km/h 0.8 km/h 83% 0 mm 0.00 W/m2 OVC
02:05 0.1 °C -2.4 °C 1010.4 hPa WNW 3.7 km/h 0.3 km/h 83% 0 mm 0.00 W/m2 OVC
02:10 0.1 °C -2.3 °C 1010.4 hPa SW 5.6 km/h 1 km/h 84% 0 mm 0.00 W/m2 OVC
02:15 0.1 °C -2.3 °C 1010.4 hPa SSW 5.6 km/h 1 km/h 84% 0 mm 0.00 W/m2 OVC
02:20 0.1 °C -2.3 °C 1010.4 hPa SW 9.3 km/h 1.1 km/h 84% 0 mm 0.00 W/m2 CLR
02:25 0 °C -2.4 °C 1010.7 hPa SW 9.3 km/h 0.8 km/h 84% 0 mm 0.00 W/m2 CLR
02:30 0 °C -2.2 °C 1010.4 hPa WNW 3.7 km/h 0.8 km/h 85% 0 mm 0.00 W/m2 CLR
02:35 -0.1 °C -2.3 °C 1010.4 hPa NW 5.6 km/h 1.3 km/h 85% 0 mm 0.00 W/m2 OVC
02:40 -0.2 °C -2.3 °C 1010.4 hPa NNW 5.6 km/h 1.3 km/h 86% 0 mm 0.00 W/m2 OVC
02:45 -0.3 °C -2.3 °C 1010.7 hPa NNW 5.6 km/h 1.6 km/h 86% 0 mm 0.00 W/m2 CLR
02:50 -0.3 °C -2.4 °C 1010.4 hPa NNW 7.4 km/h 1.6 km/h 86% 0 mm 0.00 W/m2 CLR
02:55 -0.4 °C -2.4 °C 1010.4 hPa NW 7.4 km/h 2.1 km/h 87% 0 mm 0.00 W/m2 CLR
03:00 -0.4 °C -2.4 °C 1010.7 hPa NW 7.4 km/h 1.1 km/h 87% 0 mm 0.00 W/m2 OVC
03:05 -0.4 °C -2.2 °C 1010.4 hPa NW 5.6 km/h 0.8 km/h 88% 0 mm 0.00 W/m2 CLR
03:10 -0.4 °C -2.2 °C 1010.4 hPa NW 5.6 km/h 0.8 km/h 88% 0 mm 0.00 W/m2 CLR
03:15 -0.5 °C -2.3 °C 1010.4 hPa NNW 3.7 km/h 1.1 km/h 88% 0 mm 0.00 W/m2 CLR
03:20 -0.6 °C -2.3 °C 1010.4 hPa NNW 5.6 km/h 0.5 km/h 88% 0 mm 0.00 W/m2 OVC
03:25 -0.6 °C -2.2 °C 1010.4 hPa NNW 5.6 km/h   89% 0 mm 0.00 W/m2 OVC
03:30 -0.6 °C -2.2 °C 1010.4 hPa NNW 3.7 km/h 0.3 km/h 89% 0 mm 0.00 W/m2 OVC
03:35 -0.6 °C -2.2 °C 1010.4 hPa NNW 3.7 km/h 0.3 km/h 89% 0 mm 0.00 W/m2 CLR
03:40 -0.6 °C -2.2 °C 1010.4 hPa NNW 1.9 km/h   89% 0 mm 0.00 W/m2 CLR
03:45 -0.6 °C -2.2 °C 1010.4 hPa NNW 1.9 km/h   89% 0 mm 0.00 W/m2 CLR
03:50 -0.5 °C -2.1 °C 1010.4 hPa NNW 3.7 km/h   89% 0 mm 0.00 W/m2 OVC
03:55 -0.5 °C -2.1 °C 1010.7 hPa NNW 3.7 km/h 0.2 km/h 89% 0 mm 0.00 W/m2 OVC
04:00 -0.4 °C -2.1 °C 1010.7 hPa NNW 1.9 km/h 0.2 km/h 89% 0 mm 0.00 W/m2 OVC
04:05 -0.4 °C -2.1 °C 1010.7 hPa NNW 1.9 km/h   89% 0 mm 0.00 W/m2 OVC
04:10 -0.5 °C -2.1 °C 1010.7 hPa NNW 3.7 km/h 0.2 km/h 89% 0 mm 0.00 W/m2 CLR
04:15 -0.5 °C -2.1 °C 1010.7 hPa NW 3.7 km/h 0.5 km/h 89% 0 mm 0.00 W/m2 CLR
04:20 -0.5 °C -2.3 °C 1010.7 hPa NW 3.7 km/h 1.4 km/h 88% 0 mm 0.00 W/m2 CLR
04:25 -0.5 °C -2.3 °C 1010.7 hPa NW 3.7 km/h 1.9 km/h 88% 0 mm 0.00 W/m2 CLR
04:30 -0.4 °C -2.2 °C 1010.7 hPa NW 3.7 km/h 1.3 km/h 88% 0 mm 0.00 W/m2 OVC
04:35 -0.4 °C -2.4 °C 1010.7 hPa NW 5.6 km/h 0.8 km/h 87% 0 mm 0.00 W/m2 OVC
04:40 -0.4 °C -2.3 °C 1010.7 hPa NNW 9.3 km/h 1.4 km/h 87% 0 mm 0.00 W/m2 OVC
04:45 -0.5 °C -2.6 °C 1011.1 hPa NNW 14.8 km/h 4 km/h 86% 0 mm 0.00 W/m2 CLR
04:50 -0.5 °C -2.6 °C 1011.1 hPa NW 14.8 km/h 4.8 km/h 86% 0 mm 0.00 W/m2 OVC
04:55 -0.5 °C -2.6 °C 1011.1 hPa NW 11.1 km/h 3.2 km/h 86% 0 mm 0.00 W/m2 CLR
05:00 -0.5 °C -2.7 °C 1011.1 hPa West 9.3 km/h 2.9 km/h 85% 0 mm 0.00 W/m2 OVC
05:05 -0.5 °C -2.7 °C 1011.1 hPa West 9.3 km/h 3.2 km/h 85% 0 mm 0.00 W/m2 OVC
05:10 -0.6 °C -2.8 °C 1011.1 hPa WNW 14.8 km/h 3.5 km/h 85% 0 mm 0.00 W/m2 CLR
05:15 -0.6 °C -2.8 °C 1011.1 hPa NW 14.8 km/h 4.7 km/h 85% 0 mm 0.00 W/m2 OVC
05:20 -0.7 °C -2.9 °C 1011.1 hPa WNW 13 km/h 4.8 km/h 85% 0 mm 0.00 W/m2 CLR
05:25 -0.7 °C -2.9 °C 1011.1 hPa WSW 9.3 km/h 4.8 km/h 85% 0 mm 0.00 W/m2 OVC
05:30 -0.7 °C -2.9 °C 1011.1 hPa NNW 9.3 km/h 4.5 km/h 85% 0 mm 0.00 W/m2 OVC
05:35 -0.7 °C -2.9 °C 1011.1 hPa NNW 11.1 km/h 5.1 km/h 85% 0 mm 0.00 W/m2 OVC
05:40 -0.8 °C -3 °C 1011.1 hPa WNW 14.8 km/h 6 km/h 85% 0 mm 0.00 W/m2 OVC
05:45 -0.7 °C -2.9 °C 1011.1 hPa WNW 14.8 km/h 4.7 km/h 85% 0 mm 0.00 W/m2 OVC
05:50 -0.7 °C -3.1 °C 1011.1 hPa NW 14.8 km/h 3.4 km/h 84% 0 mm 0.00 W/m2 OVC
05:55 -0.7 °C -3.1 °C 1011.1 hPa NNW 11.1 km/h 3.7 km/h 84% 0 mm 0.00 W/m2 OVC
06:00 -0.7 °C -3.1 °C 1011.4 hPa North 11.1 km/h 4.7 km/h 84% 0 mm 0.00 W/m2 OVC
06:05 -0.7 °C -3.1 °C 1011.4 hPa NNW 7.4 km/h 3.4 km/h 84% 0 mm 0.00 W/m2 OVC
06:10 -0.6 °C -3.2 °C 1011.4 hPa WNW 7.4 km/h 2.1 km/h 83% 0 mm 0.00 W/m2 OVC
06:15 -0.6 °C -3.2 °C 1011.4 hPa WNW 5.6 km/h 1.6 km/h 83% 0 mm 0.00 W/m2 CLR
06:20 -0.6 °C -3.3 °C 1011.4 hPa NW 7.4 km/h 2.1 km/h 82% 0 mm 0.00 W/m2 CLR
06:25 -0.6 °C -3.3 °C 1011.4 hPa NW 7.4 km/h 2.9 km/h 82% 0 mm 0.00 W/m2 CLR
06:30 -0.6 °C -3.4 °C 1011.7 hPa NW 7.4 km/h 3.5 km/h 81% 0 mm 0.00 W/m2 CLR
06:35 -0.5 °C -3.4 °C 1011.7 hPa NW 7.4 km/h 2.7 km/h 81% 0 mm 0.00 W/m2 CLR
06:40 -0.4 °C -3.3 °C 1011.7 hPa WNW 7.4 km/h 1.6 km/h 81% 0 mm 0.00 W/m2 CLR
06:45 -0.4 °C -3.5 °C 1011.7 hPa WNW 7.4 km/h 1.3 km/h 80% 0 mm 0.00 W/m2 CLR
06:50 -0.4 °C -3.5 °C 1011.7 hPa SW 9.3 km/h 2.3 km/h 80% 0 mm 0.00 W/m2 OVC
06:55 -0.4 °C -3.5 °C 1011.7 hPa WNW 9.3 km/h 2.4 km/h 80% 0 mm 0.00 W/m2 CLR
07:00 -0.5 °C -3.7 °C 1011.7 hPa WNW 9.3 km/h 3.4 km/h 79% 0 mm 0.00 W/m2 OVC
07:05 -0.6 °C -3.8 °C 1011.7 hPa NW 9.3 km/h 3.9 km/h 79% 0 mm 0.00 W/m2 OVC
07:10 -0.5 °C -3.7 °C 1011.7 hPa WNW 9.3 km/h 3.4 km/h 79% 0 mm 0.00 W/m2 OVC
07:15 -0.5 °C -3.7 °C 1011.7 hPa West 9.3 km/h 2.9 km/h 79% 0 mm 0.00 W/m2 OVC
07:20 -0.6 °C -4 °C 1011.7 hPa WNW 9.3 km/h 3.9 km/h 78% 0 mm 0.00 W/m2 OVC
07:25 -0.6 °C -3.8 °C 1012.1 hPa West 9.3 km/h 4.5 km/h 79% 0 mm 0.00 W/m2 OVC
07:30 -0.6 °C -3.8 °C 1012.1 hPa WNW 13 km/h 5 km/h 79% 0 mm 0.00 W/m2 OVC
07:35 -0.7 °C -3.9 °C 1012.1 hPa NW 14.8 km/h 6.6 km/h 79% 0 mm 0.00 W/m2 OVC
07:40 -0.7 °C -3.9 °C 1012.1 hPa NW 14.8 km/h 6.4 km/h 79% 0 mm 0.00 W/m2 OVC
07:45 -0.7 °C -3.9 °C 1012.1 hPa WNW 14.8 km/h 5.3 km/h 79% 0 mm 0.00 W/m2 OVC
07:50 -0.7 °C -3.9 °C 1012.1 hPa WNW 9.3 km/h 4.7 km/h 79% 0 mm 0.00 W/m2 CLR
07:55 -0.7 °C -3.9 °C 1012.1 hPa NNW 11.1 km/h 3.9 km/h 79% 0 mm 0.00 W/m2 CLR
08:00 -0.8 °C -4 °C 1012.1 hPa WNW 11.1 km/h 4.7 km/h 79% 0 mm 0.00 W/m2 OVC
08:05 -0.7 °C -3.9 °C 1012.1 hPa West 11.1 km/h 4.8 km/h 79% 0 mm 0.00 W/m2 CLR
08:10 -0.8 °C -4 °C 1012.4 hPa WNW 9.3 km/h 4.8 km/h 79% 0 mm 0.00 W/m2 CLR
08:15 -0.7 °C -3.9 °C 1012.4 hPa West 9.3 km/h 3.9 km/h 79% 0 mm 0.00 W/m2 CLR
08:20 -0.7 °C -3.9 °C 1012.4 hPa West 11.1 km/h 3.7 km/h 79% 0 mm 5.00 W/m2 BKN
08:25 -0.7 °C -3.9 °C 1012.4 hPa West 11.1 km/h 3.9 km/h 79% 0 mm 11.00 W/m2 BKN
08:30 -0.7 °C -3.9 °C 1012.4 hPa WNW 11.1 km/h 3.9 km/h 79% 0 mm 12.00 W/m2 BKN
08:35 -0.7 °C -3.9 °C 1012.8 hPa NW 11.1 km/h 3.7 km/h 79% 0 mm 14.00 W/m2 BKN
08:40 -0.7 °C -3.9 °C 1012.8 hPa WNW 11.1 km/h 4.8 km/h 79% 0 mm 14.00 W/m2 BKN
08:45 -0.6 °C -4 °C 1012.8 hPa WNW 11.1 km/h 4.2 km/h 78% 0 mm 18.00 W/m2 BKN
08:50 -0.7 °C -4.1 °C 1012.8 hPa NNW 11.1 km/h 5.6 km/h 78% 0 mm 21.00 W/m2 BKN
08:55 -0.7 °C -4.1 °C 1012.8 hPa NNW 14.8 km/h 5.6 km/h 78% 0 mm 19.00 W/m2 BKN
09:00 -0.6 °C -4 °C 1012.8 hPa WNW 14.8 km/h 4.5 km/h 78% 0 mm 23.00 W/m2 BKN
09:05 -0.6 °C -4 °C 1012.8 hPa NNW 14.8 km/h 4.7 km/h 78% 0 mm 28.00 W/m2 BKN
09:10 -0.6 °C -4 °C 1012.8 hPa NNW 14.8 km/h 6.1 km/h 78% 0 mm 30.00 W/m2 BKN
09:15 -0.6 °C -3.9 °C 1012.8 hPa NW 14.8 km/h 5.8 km/h 78% 0 mm 28.00 W/m2 BKN
09:20 -0.6 °C -3.9 °C 1012.8 hPa NW 11.1 km/h 5.3 km/h 78% 0 mm 32.00 W/m2 BKN
09:25 -0.6 °C -3.9 °C 1012.8 hPa NW 9.3 km/h 5.3 km/h 78% 0 mm 35.00 W/m2 BKN
09:30 -0.5 °C -3.9 °C 1012.8 hPa NW 9.3 km/h 5.8 km/h 78% 0 mm 39.00 W/m2 BKN
09:35 -0.5 °C -3.9 °C 1012.8 hPa NW 9.3 km/h 5.6 km/h 78% 0 mm 42.00 W/m2 BKN
09:40 -0.4 °C -3.8 °C 1012.8 hPa NW 14.8 km/h 5.3 km/h 78% 0 mm 42.00 W/m2 BKN
09:45 -0.5 °C -4.1 °C 1012.8 hPa NNW 16.7 km/h 6.3 km/h 77% 0 mm 40.00 W/m2 BKN
09:50 -0.5 °C -3.9 °C 1012.8 hPa NW 16.7 km/h 7.1 km/h 78% 0 mm 40.00 W/m2 BKN
09:55 -0.5 °C -3.9 °C 1013.1 hPa WNW 16.7 km/h 7.7 km/h 78% 0 mm 42.00 W/m2 BKN
10:00 -0.4 °C -3.8 °C 1013.1 hPa WNW 16.7 km/h 7.6 km/h 78% 0 mm 39.00 W/m2 BKN
10:05 -0.3 °C -3.7 °C 1013.1 hPa NW 14.8 km/h 6 km/h 78% 0 mm 40.00 W/m2 BKN
10:10 -0.1 °C -3.5 °C 1013.1 hPa NW 11.1 km/h 4.8 km/h 78% 0 mm 40.00 W/m2 BKN
10:15 -0.1 °C -3.5 °C 1013.1 hPa NW 11.1 km/h 4 km/h 78% 0 mm 40.00 W/m2 BKN
10:20 -0.1 °C -3.5 °C 1013.1 hPa NNW 14.8 km/h 5 km/h 78% 0 mm 49.00 W/m2 BKN
10:25 -0.2 °C -3.6 °C 1013.1 hPa NW 14.8 km/h 6.6 km/h 78% 0 mm 49.00 W/m2 BKN
10:30 -0.4 °C -3.6 °C 1013.1 hPa NW 14.8 km/h 7.6 km/h 79% 0 mm 51.00 W/m2 BKN
10:35 -0.4 °C -3.6 °C 1013.4 hPa NNW 14.8 km/h 6.9 km/h 79% 0 mm 51.00 W/m2 BKN
10:40 -0.3 °C -3.6 °C 1013.4 hPa NNW 9.3 km/h 5.3 km/h 79% 0 mm 49.00 W/m2 BKN
10:45 -0.3 °C -3.5 °C 1013.4 hPa NW 14.8 km/h 6 km/h 79% 0 mm 53.00 W/m2 BKN
10:50 -0.2 °C -3.4 °C 1013.4 hPa NNW 14.8 km/h 6.3 km/h 79% 0 mm 44.00 W/m2 BKN
10:55 -0.3 °C -3.5 °C 1013.4 hPa NNW 14.8 km/h 6.6 km/h 79% 0 mm 40.00 W/m2 BKN
11:00 -0.3 °C -3.3 °C 1013.4 hPa NNW 14.8 km/h 6.6 km/h 80% 0 mm 40.00 W/m2 BKN
11:05 -0.2 °C -3.3 °C 1013.4 hPa NW 14.8 km/h 6 km/h 80% 0 mm 42.00 W/m2 BKN
11:10 -0.1 °C -3.2 °C 1013.4 hPa WNW 14.8 km/h 5.1 km/h 80% 0 mm 49.00 W/m2 BKN
11:15 0 °C -3.1 °C 1013.4 hPa NW 11.1 km/h 4.8 km/h 80% 0 mm 49.00 W/m2 BKN
11:20 0 °C -3.1 °C 1013.4 hPa NNW 11.1 km/h 5 km/h 80% 0 mm 54.00 W/m2 BKN
11:25 -0.1 °C -3.1 °C 1013.4 hPa NNW 14.8 km/h 6.4 km/h 80% 0 mm 56.00 W/m2 BKN
11:30 0 °C -3.1 °C 1013.4 hPa NW 14.8 km/h 6.1 km/h 80% 0 mm 69.00 W/m2 BKN
11:35 0.1 °C -3.2 °C 1013.4 hPa NW 14.8 km/h 5.3 km/h 79% 0 mm 46.00 W/m2 BKN
11:40 0 °C -3.2 °C 1013.1 hPa North 14.8 km/h 7.2 km/h 79% 0 mm 60.00 W/m2 BKN
11:45 0 °C -3.2 °C 1013.4 hPa North 14.8 km/h 8.2 km/h 79% 0 mm 69.00 W/m2 BKN
11:50 0 °C -3.2 °C 1013.1 hPa NW 14.8 km/h 7.7 km/h 79% 0 mm 56.00 W/m2 BKN
11:55 0.1 °C -3.2 °C 1013.1 hPa NNW 16.7 km/h 8.2 km/h 79% 0 mm 88.00 W/m2 BKN
12:00 0.1 °C -3.1 °C 1013.1 hPa NNW 16.7 km/h 7.1 km/h 79% 0 mm 76.00 W/m2 BKN
12:05 0.2 °C -3 °C 1013.1 hPa NW 14.8 km/h 6.4 km/h 79% 0 mm 79.00 W/m2 BKN
12:10 0.3 °C -3.1 °C 1013.1 hPa WNW 9.3 km/h 5.8 km/h 78% 0 mm 77.00 W/m2 BKN
12:15 0.3 °C -3.1 °C 1013.1 hPa WNW 11.1 km/h 6.3 km/h 78% 0 mm 74.00 W/m2 BKN
12:20 0.4 °C -3 °C 1013.1 hPa WNW 11.1 km/h 5.8 km/h 78% 0 mm 60.00 W/m2 BKN
12:25 0.3 °C -3.1 °C 1013.1 hPa NW 11.1 km/h 6 km/h 78% 0 mm 54.00 W/m2 BKN
12:30 0.3 °C -3.1 °C 1012.8 hPa West 14.8 km/h 6.9 km/h 78% 0 mm 67.00 W/m2 BKN
12:35 0.4 °C -2.9 °C 1012.8 hPa West 14.8 km/h 6 km/h 78% 0 mm 69.00 W/m2 BKN
12:40 0.5 °C -3.1 °C 1012.8 hPa NW 11.1 km/h 4.2 km/h 77% 0 mm 58.00 W/m2 BKN
12:45 0.4 °C -3.2 °C 1012.8 hPa North 14.8 km/h 3.9 km/h 77% 0 mm 69.00 W/m2 BKN
12:50 0.4 °C -3.2 °C 1012.8 hPa NW 14.8 km/h 5.3 km/h 77% 0 mm 62.00 W/m2 BKN
12:55 0.4 °C -3.2 °C 1012.8 hPa NNW 14.8 km/h 7.4 km/h 77% 0 mm 67.00 W/m2 BKN
13:00 0.3 °C -3.3 °C 1012.8 hPa NNW 14.8 km/h 8.4 km/h 77% 0 mm 62.00 W/m2 BKN
13:05 0.4 °C -3.2 °C 1012.8 hPa NNW 14.8 km/h 8.5 km/h 77% 0 mm 67.00 W/m2 BKN
13:10 0.5 °C -3.1 °C 1012.8 hPa NNW 13 km/h 6 km/h 77% 0 mm 69.00 W/m2 BKN
13:15 0.6 °C -3.2 °C 1012.8 hPa NW 14.8 km/h 4.7 km/h 76% 0 mm 63.00 W/m2 BKN
13:20 0.6 °C -3.2 °C 1012.8 hPa West 14.8 km/h 4.8 km/h 76% 0 mm 98.00 W/m2 BKN
13:25 0.6 °C -3.2 °C 1012.4 hPa NW 14.8 km/h 6.1 km/h 76% 0 mm 100.00 W/m2 BKN
13:30 0.7 °C -3.1 °C 1012.4 hPa WNW 14.8 km/h 6 km/h 76% 0 mm 100.00 W/m2 BKN
13:35 0.8 °C -3.2 °C 1012.4 hPa NW 16.7 km/h 5.8 km/h 75% 0 mm 105.00 W/m2 BKN
13:40 0.7 °C -3.3 °C 1012.4 hPa NW 16.7 km/h 7.7 km/h 75% 0 mm 100.00 W/m2 BKN
13:45 0.8 °C -3.2 °C 1012.4 hPa WNW 16.7 km/h 7.4 km/h 75% 0 mm 118.00 W/m2 BKN
13:50 0.8 °C -3.1 °C 1012.4 hPa WNW 14.8 km/h 6.9 km/h 75% 0 mm 84.00 W/m2 BKN
13:55 0.8 °C -3.3 °C 1012.4 hPa WNW 14.8 km/h 6.9 km/h 74% 0 mm 79.00 W/m2 BKN
14:00 0.9 °C -3.2 °C 1012.4 hPa NNW 14.8 km/h 6.3 km/h 74% 0 mm 102.00 W/m2 BKN
14:05 0.9 °C -3.2 °C 1012.4 hPa WNW 11.1 km/h 6.4 km/h 74% 0 mm 104.00 W/m2 BKN
14:10 0.9 °C -3.2 °C 1012.4 hPa NW 11.1 km/h 6.4 km/h 74% 0 mm 144.00 W/m2 BKN
14:15 1.1 °C -3.3 °C 1012.8 hPa WNW 13 km/h 6.1 km/h 73% 0 mm 146.00 W/m2 BKN
14:20 1.2 °C -3.1 °C 1012.8 hPa WNW 13 km/h 5.3 km/h 73% 0 mm 141.00 W/m2 BKN
14:25 1.3 °C -3.1 °C 1012.8 hPa NW 13 km/h 5.8 km/h 73% 0 mm 121.00 W/m2 BKN
14:30 1.2 °C -3.3 °C 1012.8 hPa WNW 13 km/h 6 km/h 72% 0 mm 53.00 W/m2 BKN
14:35 1.1 °C -3.4 °C 1012.8 hPa WNW 14.8 km/h 7.2 km/h 72% 0 mm 33.00 W/m2 BKN
14:40 0.9 °C -3.6 °C 1012.4 hPa NNW 14.8 km/h 8.4 km/h 72% 0 mm 23.00 W/m2 BKN
14:45 0.8 °C -3.7 °C 1012.4 hPa NW 20.4 km/h 9 km/h 72% 0 mm 25.00 W/m2 BKN
14:50 0.7 °C -3.8 °C 1012.8 hPa NW 20.4 km/h 8.4 km/h 72% 0 mm 18.00 W/m2 BKN
14:55 0.7 °C -3.8 °C 1012.8 hPa NW 16.7 km/h 8.4 km/h 72% 0 mm 19.00 W/m2 BKN
15:00 0.7 °C -4 °C 1012.8 hPa WNW 16.7 km/h 7.9 km/h 71% 0 mm 25.00 W/m2 BKN
15:05 0.6 °C -4.1 °C 1012.8 hPa NNW 16.7 km/h 8.4 km/h 71% 0 mm 21.00 W/m2 BKN
15:10 0.6 °C -4.1 °C 1012.8 hPa NNW 16.7 km/h 8.9 km/h 71% 0 mm 19.00 W/m2 BKN
15:15 0.6 °C -4.1 °C 1012.8 hPa North 14.8 km/h 7.2 km/h 71% 0 mm 18.00 W/m2 BKN
15:20 0.6 °C -4.1 °C 1012.8 hPa NW 11.1 km/h 6.4 km/h 71% 0 mm 21.00 W/m2 BKN
15:25 0.7 °C -4 °C 1012.8 hPa NW 11.1 km/h 6.4 km/h 71% 0 mm 19.00 W/m2 BKN
15:30 0.7 °C -3.9 °C 1012.8 hPa NW 11.1 km/h 5 km/h 71% 0 mm 14.00 W/m2 BKN
15:35 0.7 °C -4.2 °C 1012.8 hPa NW 9.3 km/h 4 km/h 70% 0 mm 14.00 W/m2 BKN
High Park Village Arhives